Hourly Data Report for January 21, 2017

All times are specified in Local Standard Time (LST). Add 1 hour to adjust for Daylight Saving Time where and when it is observed.

WINNIPEG A CS
MANITOBA

49°55'00.000" N
97°14'58.000" W
238.70 m
502S001
71849
XWG

Download Data

Hourly Data (January 2017)
Hourly Data Report for January 21, 2017
TIME Temp Definition
°C
Dew Point Definition
°C
Rel Hum Definition
%
Wind Dir Definition
10's deg

Wind Spd Definition
km/h
Visibility Definition
km
Stn Press Definition
kPa
Hmdx Definition


Wind Chill Definition


Weather Definition


00:00 1.5 1.2 98 13 14   96.93     LegendNANA
01:00 1.2 1.0 98 13 14   96.92     LegendNANA
02:00 1.3 1.1 99 13 15   96.91     LegendNANA
03:00 1.3 1.1 99 13 16   96.91     LegendNANA
04:00 1.4 1.2 98 12 16   96.88     LegendNANA
05:00 1.5 1.2 98 13 15   96.89     LegendNANA
06:00 1.5 1.1 97 13 14   96.88     LegendNANA
07:00 1.7 1.2 97 13 15   96.89     LegendNANA
08:00 1.4 1.0 98 12 15   96.91     LegendNANA
09:00 1.4 1.1 98 12 15   96.93     LegendNANA
10:00 1.5 1.1 97 12 14   96.94     LegendNANA
11:00 1.6 1.1 97 12 15   96.95     LegendNANA
12:00 1.5 1.1 97 14 12   96.94     LegendNANA
13:00 1.5 1.0 97 11 9   96.92     LegendNANA
14:00 1.5 1.0 97 11 9   96.94     LegendNANA
15:00 2.0 1.4 96 12 15   96.99     LegendNANA
16:00 1.5 1.2 98 11 9   97.07     LegendNANA
17:00 1.5 1.1 97 11 11   97.13     LegendNANA
18:00 1.4 1.0 97 14 11   97.17     LegendNANA
19:00 1.4 1.2 98 10 5   97.22     LegendNANA
20:00 1.3 1.0 98 9 7   97.24     LegendNANA
21:00 1.5 1.3 98 13 10   97.29     LegendNANA
22:00 1.3 1.0 98 13 9   97.35     LegendNANA
23:00 1.1 0.8 98 14 9   97.38     LegendNANA

Notes on Data Quality.

Legend

  • E = Estimated
  • M = Missing
  • NA = Not Available
Date modified: